Time,TemperatureF,DewpointF,PressureIn,WindDirection,WindDirectionDegrees,WindSpeedMPH,WindSpeedGustMPH,Humidity,HourlyPrecipIn,Conditions,Clouds,dailyrainin,SoftwareType,DateUTC
2013-08-18 00:42:00,64.0,44.0,-100.00,ESE,107,8.0,13.0,48,0.00,,,-99.99,,2013-08-18 07:42:00,
2013-08-18 00:52:00,63.0,42.0,-100.00,ESE,107,8.0,13.0,47,0.00,,,-99.99,,2013-08-18 07:52:00,
2013-08-18 01:00:00,60.0,47.0,-100.00,SSE,147,12.0,18.0,61,0.00,,,-99.99,,2013-08-18 08:00:00,
2013-08-18 01:01:00,63.0,42.0,-100.00,ESE,107,8.0,13.0,47,0.00,,,-99.99,,2013-08-18 08:01:00,
2013-08-18 01:12:00,63.0,42.0,-100.00,ESE,107,8.0,13.0,47,0.00,,,-99.99,,2013-08-18 08:12:00,
2013-08-18 01:21:00,60.0,47.0,-100.00,North,-999,-999.0,-999.0,61,0.00,,,-99.99,,2013-08-18 08:21:00,
2013-08-18 01:42:00,60.0,47.0,-100.00,SSE,147,12.0,18.0,61,0.00,,,-99.99,,2013-08-18 08:42:00,
2013-08-18 01:52:00,60.0,47.0,-100.00,SSE,147,12.0,18.0,61,0.00,,,-99.99,,2013-08-18 08:52:00,
2013-08-18 02:02:00,60.0,46.0,-100.00,SE,138,9.0,14.0,59,0.00,,,-99.99,,2013-08-18 09:02:00,
2013-08-18 02:21:00,60.0,45.0,-100.00,North,-999,-999.0,-999.0,59,0.00,,,-99.99,,2013-08-18 09:21:00,
2013-08-18 02:43:00,60.0,46.0,-100.00,SE,138,9.0,14.0,59,0.00,,,-99.99,,2013-08-18 09:43:00,
2013-08-18 02:53:00,60.0,46.0,-100.00,SE,138,9.0,14.0,59,0.00,,,-99.99,,2013-08-18 09:53:00,
2013-08-18 03:52:00,58.0,44.0,-100.00,SE,131,8.0,13.0,60,0.00,,,-99.99,,2013-08-18 10:52:00,
2013-08-18 04:02:00,58.0,44.0,-100.00,SE,131,8.0,13.0,60,0.00,,,-99.99,,2013-08-18 11:02:00,
2013-08-18 04:42:00,55.0,43.0,-100.00,SE,133,0.0,2.0,65,0.00,,,-99.99,,2013-08-18 11:42:00,
2013-08-18 04:52:00,55.0,43.0,-100.00,SE,133,0.0,2.0,65,0.00,,,-99.99,,2013-08-18 11:52:00,
2013-08-18 05:01:00,55.0,43.0,-100.00,SE,133,0.0,2.0,65,0.00,,,-99.99,,2013-08-18 12:01:00,
2013-08-18 05:21:00,59.0,43.0,-100.00,ESE,123,6.0,12.0,55,0.00,,,-99.99,,2013-08-18 12:21:00,
2013-08-18 05:31:00,59.0,43.0,-100.00,ESE,123,6.0,12.0,55,0.00,,,-99.99,,2013-08-18 12:31:00,
2013-08-18 05:41:00,59.0,43.0,-100.00,ESE,123,6.0,12.0,55,0.00,,,-99.99,,2013-08-18 12:41:00,
2013-08-18 05:52:00,57.0,43.0,-100.00,SSE,157,3.0,7.0,59,0.00,,,-99.99,,2013-08-18 12:52:00,
2013-08-18 06:11:00,57.0,43.0,-100.00,SSW,193,0.0,2.0,60,0.00,,,-99.99,,2013-08-18 13:11:00,
2013-08-18 06:21:00,57.0,43.0,-100.00,SSW,193,0.0,2.0,60,0.00,,,-99.99,,2013-08-18 13:21:00,
2013-08-18 06:32:00,57.0,43.0,-100.00,SSW,193,0.0,2.0,60,0.00,,,-99.99,,2013-08-18 13:32:00,
2013-08-18 06:42:00,57.0,43.0,-100.00,SSW,193,0.0,2.0,60,0.00,,,-99.99,,2013-08-18 13:42:00,
2013-08-18 07:11:00,56.0,43.0,-100.00,NE,44,0.0,1.0,61,0.00,,,-99.99,,2013-08-18 14:11:00,
2013-08-18 07:21:00,56.0,43.0,-100.00,NE,44,0.0,1.0,61,0.00,,,-99.99,,2013-08-18 14:21:00,
2013-08-18 08:11:00,60.0,44.0,-100.00,SSE,154,1.0,4.0,55,0.00,,,-99.99,,2013-08-18 15:11:00,
2013-08-18 08:22:00,60.0,44.0,-100.00,SSE,154,1.0,4.0,55,0.00,,,-99.99,,2013-08-18 15:22:00,
2013-08-18 08:43:00,67.0,43.0,-100.00,SE,136,1.0,5.0,42,0.00,,,-99.99,,2013-08-18 15:43:00,
2013-08-18 09:13:00,69.0,44.0,-100.00,SSE,160,4.0,8.0,40,0.00,,,-99.99,,2013-08-18 16:13:00,
2013-08-18 09:23:00,69.0,44.0,-100.00,SSE,160,4.0,8.0,40,0.00,,,-99.99,,2013-08-18 16:23:00,
2013-08-18 09:42:00,71.0,44.0,-100.00,ESE,116,4.0,8.0,38,0.00,,,-99.99,,2013-08-18 16:42:00,
2013-08-18 09:52:00,71.0,44.0,-100.00,ESE,116,4.0,8.0,38,0.00,,,-99.99,,2013-08-18 16:52:00,
2013-08-18 10:02:00,71.0,44.0,-100.00,ESE,116,4.0,8.0,38,0.00,,,-99.99,,2013-08-18 17:02:00,
2013-08-18 10:12:00,71.0,44.0,-100.00,ESE,116,4.0,8.0,38,0.00,,,-99.99,,2013-08-18 17:12:00,
2013-08-18 10:43:00,74.0,40.0,-100.00,SSW,205,5.0,13.0,29,0.00,,,-99.99,,2013-08-18 17:43:00,
2013-08-18 10:52:00,74.0,40.0,-100.00,SSW,205,5.0,13.0,29,0.00,,,-99.99,,2013-08-18 17:52:00,
2013-08-18 11:02:00,74.0,40.0,-100.00,SSW,205,5.0,13.0,29,0.00,,,-99.99,,2013-08-18 18:02:00,
2013-08-18 11:12:00,74.0,40.0,-100.00,SSW,205,5.0,13.0,29,0.00,,,-99.99,,2013-08-18 18:12:00,
2013-08-18 11:42:00,75.0,40.0,-100.00,SW,229,4.0,11.0,28,0.00,,,-99.99,,2013-08-18 18:42:00,
2013-08-18 12:11:00,77.0,38.0,-100.00,NW,304,6.0,14.0,25,0.00,,,-99.99,,2013-08-18 19:11:00,
2013-08-18 12:22:00,77.0,36.0,-100.00,West,265,9.0,20.0,23,0.00,,,-99.99,,2013-08-18 19:22:00,
2013-08-18 12:41:00,80.0,38.0,-100.00,SSW,202,2.0,8.0,22,0.00,,,-99.99,,2013-08-18 19:41:00,
2013-08-18 13:11:00,78.0,35.0,-100.00,WNW,295,5.0,13.0,21,0.00,,,-99.99,,2013-08-18 20:11:00,
2013-08-18 13:22:00,76.0,38.0,-100.00,WNW,288,11.0,18.0,25,0.00,,,-99.99,,2013-08-18 20:22:00,
2013-08-18 13:32:00,76.0,38.0,-100.00,WNW,288,11.0,18.0,25,0.00,,,-99.99,,2013-08-18 20:32:00,
2013-08-18 13:42:00,76.0,38.0,-100.00,WNW,288,11.0,18.0,25,0.00,,,-99.99,,2013-08-18 20:42:00,
2013-08-18 15:23:00,72.0,39.0,-100.00,ENE,61,11.0,17.0,30,0.00,,,-99.99,,2013-08-18 22:23:00,
2013-08-18 15:34:00,72.0,39.0,-100.00,ENE,61,11.0,17.0,30,0.00,,,-99.99,,2013-08-18 22:34:00,
2013-08-18 15:42:00,72.0,39.0,-100.00,ENE,61,11.0,17.0,30,0.00,,,-99.99,,2013-08-18 22:42:00,
2013-08-18 16:11:00,72.0,34.0,-100.00,ENE,71,13.0,22.0,25,0.00,,,-99.99,,2013-08-18 23:11:00,
2013-08-18 16:22:00,66.0,46.0,-100.00,SSE,155,12.0,20.0,48,0.00,,,-99.99,,2013-08-18 23:22:00,
2013-08-18 16:42:00,75.0,39.0,-100.00,ESE,121,14.0,25.0,27,0.00,,,-99.99,,2013-08-18 23:42:00,
2013-08-18 16:52:00,75.0,39.0,-100.00,ESE,121,14.0,25.0,27,0.00,,,-99.99,,2013-08-18 23:52:00,
2013-08-18 17:02:00,75.0,39.0,-100.00,ESE,121,14.0,25.0,27,0.00,,,-99.99,,2013-08-19 00:02:00,
2013-08-18 17:11:00,75.0,39.0,-100.00,ESE,121,14.0,25.0,27,0.00,,,-99.99,,2013-08-19 00:11:00,
2013-08-18 17:21:00,77.0,37.0,-100.00,SE,131,9.0,15.0,24,0.00,,,-99.99,,2013-08-19 00:21:00,
2013-08-18 17:32:00,77.0,37.0,-100.00,SE,131,9.0,15.0,24,0.00,,,-99.99,,2013-08-19 00:32:00,
2013-08-18 17:42:00,77.0,37.0,-100.00,SE,131,9.0,15.0,24,0.00,,,-99.99,,2013-08-19 00:42:00,
2013-08-18 18:11:00,75.0,37.0,-100.00,South,175,9.0,15.0,25,0.00,,,-99.99,,2013-08-19 01:11:00,
2013-08-18 18:22:00,75.0,37.0,-100.00,South,175,9.0,15.0,25,0.00,,,-99.99,,2013-08-19 01:22:00,
2013-08-18 18:42:00,75.0,36.0,-100.00,SE,127,8.0,12.0,24,0.00,,,-99.99,,2013-08-19 01:42:00,
2013-08-18 18:52:00,75.0,36.0,-100.00,SE,127,8.0,12.0,24,0.00,,,-99.99,,2013-08-19 01:52:00,
2013-08-18 19:06:00,75.0,36.0,-100.00,SE,127,8.0,12.0,24,0.00,,,-99.99,,2013-08-19 02:06:00,
2013-08-18 19:11:00,75.0,36.0,-100.00,SE,127,8.0,12.0,24,0.00,,,-99.99,,2013-08-19 02:11:00,
2013-08-18 19:21:00,73.0,36.0,-100.00,ENE,75,6.0,11.0,26,0.00,,,-99.99,,2013-08-19 02:21:00,
2013-08-18 19:32:00,73.0,36.0,-100.00,ENE,75,6.0,11.0,26,0.00,,,-99.99,,2013-08-19 02:32:00,
2013-08-18 19:42:00,73.0,36.0,-100.00,ENE,75,6.0,11.0,26,0.00,,,-99.99,,2013-08-19 02:42:00,
2013-08-18 19:52:00,70.0,38.0,-100.00,NE,40,9.0,13.0,31,0.00,,,-99.99,,2013-08-19 02:52:00,
2013-08-18 20:00:00,68.0,41.0,-100.00,SSE,164,5.0,11.0,37,0.00,,,-99.99,,2013-08-19 03:00:00,
2013-08-18 20:11:00,69.0,37.0,-100.00,ESE,112,1.0,7.0,31,0.00,,,-99.99,,2013-08-19 03:11:00,
2013-08-18 20:21:00,69.0,37.0,-100.00,ESE,112,1.0,7.0,31,0.00,,,-99.99,,2013-08-19 03:21:00,
2013-08-18 20:42:00,68.0,41.0,-100.00,SSE,164,5.0,11.0,37,0.00,,,-99.99,,2013-08-19 03:42:00,
2013-08-18 20:53:00,68.0,41.0,-100.00,SSE,164,5.0,11.0,37,0.00,,,-99.99,,2013-08-19 03:53:00,
2013-08-18 21:02:00,67.0,41.0,-100.00,SE,126,0.0,3.0,38,0.00,,,-99.99,,2013-08-19 04:02:00,
2013-08-18 21:23:00,67.0,40.0,-100.00,North,-999,-999.0,-999.0,38,0.00,,,-99.99,,2013-08-19 04:23:00,
2013-08-18 21:42:00,67.0,41.0,-100.00,SE,126,0.0,3.0,38,0.00,,,-99.99,,2013-08-19 04:42:00,
2013-08-18 21:53:00,67.0,41.0,-100.00,SE,126,0.0,3.0,38,0.00,,,-99.99,,2013-08-19 04:53:00,
2013-08-18 22:22:00,67.0,41.0,-100.00,WSW,253,0.0,5.0,38,0.00,,,-99.99,,2013-08-19 05:22:00,
2013-08-18 22:33:00,67.0,41.0,-100.00,WSW,253,0.0,5.0,38,0.00,,,-99.99,,2013-08-19 05:33:00,
2013-08-18 22:42:00,67.0,41.0,-100.00,WSW,253,0.0,5.0,38,0.00,,,-99.99,,2013-08-19 05:42:00,
2013-08-18 23:11:00,67.0,41.0,-100.00,SE,134,2.0,7.0,38,0.00,,,-99.99,,2013-08-19 06:11:00,
2013-08-18 23:21:00,67.0,41.0,-100.00,SE,134,2.0,7.0,38,0.00,,,-99.99,,2013-08-19 06:21:00,
2013-08-18 23:32:00,67.0,41.0,-100.00,SE,134,2.0,7.0,38,0.00,,,-99.99,,2013-08-19 06:32:00,
2013-08-18 23:41:00,67.0,41.0,-100.00,SE,134,2.0,7.0,38,0.00,,,-99.99,,2013-08-19 06:41:00,
2013-08-18 23:52:00,66.0,40.0,-100.00,South,181,0.0,5.0,39,0.00,,,-99.99,,2013-08-19 06:52:00,